Waarnemingen

Advertentie
Mijn weer
Gotska sandoen, Zweden (2589): temperatuur & dauwpunt: 08.08.2018 08:00:00 - 14.08.2018 08:00:00 (CEST)Gotska sandoen, Zweden (2589): windsnelheid & windstoten: 08.08.2018 08:00:00 - 14.08.2018 08:00:00 (CEST)Gotska sandoen, Zweden (2589): windrichting: 08.08.2018 08:00:00 - 14.08.2018 08:00:00 (CEST)Gotska sandoen, Zweden (2589): luchtdruk: 08.08.2018 08:00:00 - 14.08.2018 08:00:00 (CEST)Gotska sandoen, Zweden (2589): zicht: 08.08.2018 08:00:00 - 14.08.2018 08:00:00 (CEST)Gotska sandoen, Zweden (2589): neerslag: 08.08.2018 08:00:00 - 14.08.2018 08:00:00 (CEST)
Datum & Tijd tt [°C] td [°C] ff [km/u] ff [kn] fx [km/u] fx [kn] dd ppp [hPa] vv [km] rr [mm]
14.08.2018 08:00:00 17,2 11,7 4 2 9 5 ZO 1010,3 50 0,0
14.08.2018 07:00:00 14,9 11,7 5 3 9 5 ZO 1010,5 50 0,0
14.08.2018 06:00:00 12,1 11,2 6 4 9 5 ZZO 1010,7 50 0,0
14.08.2018 05:00:00 10,9 10,4 6 4 9 5 ZZO 1010,8 50 0,0
14.08.2018 04:00:00 10,5 10,0 3 2 8 4 ZZO 1010,7 50 0,0
14.08.2018 03:00:00 9,8 9,3 6 3 7 4 ZZO 1010,9 50 0,0
14.08.2018 02:00:00 10,0 9,1 5 3 6 3 ZO 1010,9 50 0,0
14.08.2018 01:00:00 10,1 9,0 3 2 5 3 ZZO 1010,9 50 0,0
14.08.2018 00:00:00 10,4 9,0 5 3 7 4 Z 1010,7 50 0,0
13.08.2018 23:00:00 11,4 9,1 5 3 10 5 ZZW 1010,5 50 0,0
13.08.2018 22:00:00 13,9 10,1 6 4 17 9 ZZW 1010,7 50 0,0
13.08.2018 21:00:00 13,7 10,5 10 5 14 8 Z 1010,4 50 0,0
13.08.2018 20:00:00 16,0 11,0 6 4 17 9 ZZW 1010,3 50 0,0
13.08.2018 19:00:00 16,8 11,3 11 6 21 11 ZW 1010,4 50 0,0
13.08.2018 18:00:00 17,9 11,0 12 7 19 11 ZW 1010,3 50 0,0
13.08.2018 17:00:00 18,6 11,2 11 6 18 10 W 1010,4 50 0,0
13.08.2018 16:00:00 18,9 11,0 10 5 23 12 WZW 1010,4 50 0,0
13.08.2018 15:00:00 19,4 10,7 10 6 24 13 W 1010,4 47 0,0
13.08.2018 14:00:00 20,2 11,1 11 6 23 13 W 1010,6 50 0,0
13.08.2018 13:00:00 19,4 10,1 13 7 22 12 W 1010,3 42 0,0
13.08.2018 12:00:00 19,7 12,2 10 6 23 12 W 1010,4 45 0,0
13.08.2018 11:00:00 18,7 11,0 10 5 19 10 W 1010,2 47 0,0
13.08.2018 10:00:00 18,7 11,8 10 5 22 12 WNW 1009,8 39 0,0
13.08.2018 09:00:00 17,4 11,7 10 5 20 11 WNW 1009,5 50 0,0
13.08.2018 08:00:00 16,3 11,7 10 5 24 13 WNW 1009,1 50 0,0
13.08.2018 07:00:00 15,1 11,7 13 7 22 12 WNW 1009,0 41 0,0
13.08.2018 06:00:00 14,5 11,3 12 6 26 14 WNW 1008,9 50 0,0
13.08.2018 05:00:00 14,3 11,1 12 6 27 15 WNW 1008,7 50 0,0
13.08.2018 04:00:00 14,2 10,4 14 8 28 15 NW 1008,3 50 0,0
13.08.2018 03:00:00 14,0 10,4 17 9 30 16 NW 1008,1 50 0,0
13.08.2018 02:00:00 13,7 11,0 16 9 31 17 WNW 1007,9 50 0,0
13.08.2018 01:00:00 14,2 11,9 17 9 35 19 NW 1007,8 50 0,0
13.08.2018 00:00:00 14,6 12,1 18 10 36 19 NW 1007,6 50 0,0
12.08.2018 23:00:00 15,0 12,5 21 11 43 23 NW 1007,0 50 0,0
12.08.2018 22:00:00 14,9 11,7 23 12 42 23 WNW 1006,7 50 0,0
12.08.2018 21:00:00 14,8 11,8 20 11 48 26 WNW 1006,4 50 0,0
12.08.2018 20:00:00 15,5 11,9 23 12 46 25 WNW 1006,0 50 0,0
12.08.2018 19:00:00 16,2 11,6 25 14 50 27 W 1005,5 50 0,0
12.08.2018 18:00:00 16,9 12,2 26 14 51 28 W 1005,3 50 0,0
12.08.2018 17:00:00 16,9 12,6 29 16 58 32 W 1005,2 49 0,0
12.08.2018 16:00:00 17,2 12,9 26 14 57 31 WNW 1004,8 50 0,0
12.08.2018 15:00:00 17,4 13,1 26 14 53 29 W 1004,6 50 0,0
12.08.2018 14:00:00 17,3 13,2 26 14 49 27 W 1004,2 50 0,0
12.08.2018 13:00:00 15,6 14,3 23 12 46 25 W 1003,7 18 0,2
12.08.2018 12:00:00 16,4 14,9 22 12 45 25 W 1003,5 42 0,4
12.08.2018 11:00:00 13,7 13,4 18 10 44 24 W 1003,6 10 3,4
12.08.2018 10:00:00 16,4 11,8 17 9 32 17 W 1003,1 50 0,0
12.08.2018 09:00:00 16,5 12,7 14 7 26 14 W 1003,2 48 0,0
12.08.2018 08:00:00 13,6 12,8 8 4 34 18 W 1003,3 40 0,4
12.08.2018 07:00:00 16,0 10,3 18 10 29 16 WZW 1003,3 50 0,1
12.08.2018 06:00:00 15,5 10,5 10 6 39 21 ZW 1003,6 50 0,0
12.08.2018 05:00:00 15,3 12,4 23 13 39 21 WZW 1004,2 15 0,3
12.08.2018 04:00:00 14,9 11,7 10 6 24 13 ZZW 1005,3 50 0,0
12.08.2018 03:00:00 14,7 11,1 13 7 28 15 Z 1006,4 50 0,0
12.08.2018 02:00:00 13,8 11,8 13 7 23 13 Z 1007,3 50 0,0
12.08.2018 01:00:00 13,8 13,0 12 6 19 10 ZO 1008,0 40 0,2
12.08.2018 00:00:00 14,2 13,2 11 6 24 13 ZZO 1009,2 38 0,0
11.08.2018 23:00:00 14,5 13,2 15 8 52 28 Z 1010,5 11 0,5
11.08.2018 22:00:00 16,4 12,2 10 5 19 11 ZZO 1011,0 50 0,0
11.08.2018 21:00:00 16,6 12,4 12 7 20 11 ZZO 1011,7 50 0,0
11.08.2018 20:00:00 16,5 12,3 9 5 30 16 Z 1012,3 50 0,0
11.08.2018 19:00:00 16,6 12,7 16 9 33 18 ZZW 1013,3 50 0,0
11.08.2018 18:00:00 15,6 13,8 15 8 39 21 Z 1014,3 15 0,8
11.08.2018 17:00:00 19,6 13,8 24 13 44 24 WZW 1014,4 50 0,0
11.08.2018 16:00:00 21,8 12,1 15 8 28 15 ZW 1014,9 18 0,0
11.08.2018 15:00:00 20,9 11,2 16 8 29 16 ZW 1015,6 40 0,0
11.08.2018 14:00:00 21,6 11,9 15 8 29 16 ZW 1016,1 40 0,0
11.08.2018 13:00:00 21,4 11,4 14 8 30 16 ZW 1016,7 43 0,0
11.08.2018 12:00:00 21,9 12,5 16 9 32 17 ZW 1017,2 44 0,0
11.08.2018 11:00:00 22,1 12,1 18 10 30 16 WZW 1017,3 33 0,0
11.08.2018 10:00:00 20,3 12,5 16 9 27 14 WZW 1017,3 44 0,0
11.08.2018 09:00:00 19,7 11,5 16 9 36 20 WZW 1017,4 36 0,0
11.08.2018 08:00:00 19,3 11,3 18 10 43 23 W 1017,1 49 0,0
11.08.2018 07:00:00 18,6 10,9 27 15 49 26 WZW 1017,0 50 0,0
11.08.2018 06:00:00 18,3 10,1 26 14 52 28 W 1016,6 50 0,0
11.08.2018 05:00:00 18,3 11,1 28 15 56 30 WZW 1016,3 49 0,0
11.08.2018 04:00:00 18,6 11,4 30 16 54 29 WZW 1016,3 49 0,0
11.08.2018 03:00:00 18,6 10,2 30 16 59 32 WZW 1016,2 50 0,0
11.08.2018 02:00:00 19,0 10,5 34 18 58 32 WZW 1015,9 50 0,0
11.08.2018 01:00:00 19,4 10,9 27 15 54 29 W 1015,8 50 0,0
11.08.2018 00:00:00 19,8 11,3 31 17 50 27 W 1015,5 50 0,0
10.08.2018 23:00:00 20,2 11,9 28 15 53 29 W 1015,0 50 0,0
10.08.2018 22:00:00 21,0 13,4 29 16 49 26 WZW 1014,3 50 0,0
10.08.2018 21:00:00 21,9 15,7 19 10 32 17 ZW 1013,8 46 0,0
10.08.2018 20:00:00 22,1 15,9 21 11 45 24 WZW 1013,1 44 0,0
10.08.2018 19:00:00 22,5 18,3 26 14 47 25 ZW 1012,3 43 0,0
10.08.2018 18:00:00 23,3 18,0 27 15 46 25 ZW 1012,2 30 0,0
10.08.2018 17:00:00 23,9 18,1 26 14 56 30 ZW 1012,1 30 0,0
10.08.2018 16:00:00 25,1 18,3 31 17 54 29 ZW 1011,8 27 0,0
10.08.2018 15:00:00 26,1 18,8 31 17 58 32 ZW 1011,0 30 0,0
10.08.2018 14:00:00 26,3 20,6 24 13 49 26 Z 1010,8 23 0,0
10.08.2018 13:00:00 26,5 20,1 24 13 61 33 Z 1010,5 22 0,0
10.08.2018 12:00:00 25,8 20,1 26 14 63 34 Z 1010,7 23 0,0
10.08.2018 11:00:00 25,1 20,6 30 16 64 35 Z 1010,6 23 0,0
10.08.2018 10:00:00 24,5 20,2 21 12 52 28 Z 1009,8 28 0,0
10.08.2018 09:00:00 23,0 20,5 23 13 53 29 Z 1009,8 16 0,4
10.08.2018 08:00:00 24,7 19,8 29 16 57 31 Z 1010,0 30 0,0
10.08.2018 07:00:00 23,8 19,7 29 16 49 26 Z 1010,7 34 0,0
10.08.2018 06:00:00 23,4 19,8 19 10 39 21 ZZO 1010,7 41 0,0
10.08.2018 05:00:00 22,8 19,6 17 9 31 17 ZZO 1011,3 45 0,0
10.08.2018 04:00:00 22,5 19,9 15 8 27 15 ZZO 1012,2 50 0,0
10.08.2018 03:00:00 21,9 19,8 14 8 26 14 ZO 1013,0 32 0,0
10.08.2018 02:00:00 22,1 18,9 14 8 29 15 Z 1013,7 22 0,0
10.08.2018 01:00:00 22,0 18,8 15 8 29 16 Z 1014,1 25 0,0
10.08.2018 00:00:00 22,0 19,7 16 9 28 15 Z 1014,4 21 0,0
09.08.2018 23:00:00 22,0 19,7 16 9 27 15 Z 1014,7 21 0,0
09.08.2018 22:00:00 22,3 19,5 14 7 29 15 Z 1014,8 27 0,0
09.08.2018 21:00:00 22,8 20,1 16 9 29 16 Z 1015,0 24 0,0
09.08.2018 20:00:00 23,8 19,9 20 11 35 19 Z 1014,7 31 0,0
09.08.2018 19:00:00 25,1 20,1 18 10 32 17 Z 1014,7 32 0,0
09.08.2018 18:00:00 26,4 18,8 13 7 26 14 Z 1014,7 45 0,0
09.08.2018 17:00:00 27,1 17,3 12 6 23 12 Z 1014,9 42 0,0
09.08.2018 16:00:00 28,1 17,9 11 6 19 10 Z 1015,2 43 0,0
09.08.2018 15:00:00 27,2 18,5 6 4 17 9 ZW 1015,2 32 0,0
09.08.2018 14:00:00 25,3 19,9 6 3 20 11 ZW 1015,2 33 0,0
09.08.2018 13:00:00 25,9 21,3 11 6 18 10 WZW 1015,1 30 0,0
09.08.2018 12:00:00 25,5 21,0 12 7 28 15 ZW 1014,5 28 0,0
09.08.2018 11:00:00 25,8 20,4 16 9 27 15 ZW 1014,2 31 0,0
09.08.2018 10:00:00 26,1 20,2 16 9 28 15 ZW 1013,9 29 0,0
09.08.2018 09:00:00 24,7 19,5 18 10 32 17 ZZW 1013,4 39 0,0
09.08.2018 08:00:00 24,2 20,1 19 10 32 17 Z 1013,3 34 0,0
09.08.2018 07:00:00 23,4 20,0 21 11 34 18 Z 1012,9 40 0,0
09.08.2018 06:00:00 23,4 20,0 21 11 40 21 Z 1012,8 40 0,0
09.08.2018 05:00:00 23,6 19,3 20 11 35 19 Z 1012,7 48 0,0
09.08.2018 04:00:00 23,7 18,6 16 8 41 22 Z 1012,9 50 0,0
09.08.2018 03:00:00 23,5 19,2 18 10 36 19 Z 1013,5 48 0,0
09.08.2018 02:00:00 23,9 19,0 19 11 42 23 Z 1013,5 50 0,0
09.08.2018 01:00:00 24,0 18,4 23 12 51 28 Z 1013,6 49 0,0
09.08.2018 00:00:00 24,5 17,2 25 13 50 27 Z 1013,2 50 0,0
08.08.2018 23:00:00 23,8 18,0 21 12 52 28 Z 1013,3 50 0,0
08.08.2018 22:00:00 23,8 17,5 21 11 41 22 Z 1013,7 50 0,0
08.08.2018 21:00:00 23,4 17,8 22 12 42 23 Z 1013,7 50 0,0
08.08.2018 20:00:00 23,6 18,0 20 11 44 24 Z 1013,7 50 0,0
08.08.2018 19:00:00 24,1 18,3 24 13 45 25 Z 1013,8 31 0,0
08.08.2018 18:00:00 25,1 17,6 22 12 51 27 Z 1014,1 49 0,0
08.08.2018 17:00:00 26,6 17,4 23 12 56 30 Z 1013,9 46 0,0
08.08.2018 16:00:00 27,7 17,2 31 17 54 29 Z 1013,9 34 0,0
08.08.2018 15:00:00 28,2 17,4 28 15 52 28 Z 1014,1 28 0,0
08.08.2018 14:00:00 29,0 18,5 21 11 49 27 Z 1014,2 41 0,0
08.08.2018 13:00:00 29,3 19,0 24 13 42 23 Z 1014,5 21 0,0
08.08.2018 12:00:00 27,3 18,3 23 12 49 26 Z 1014,8 27 0,0
08.08.2018 11:00:00 26,2 18,8 24 13 42 23 Z 1014,8 36 0,0
08.08.2018 10:00:00 25,4 18,6 21 12 41 22 Z 1014,9 41 0,0
08.08.2018 09:00:00 24,5 18,2 22 12 36 20 Z 1014,7 47 0,0
08.08.2018 08:00:00 23,8 18,9 15 8 31 17 Z 1014,6 50 0,0

tt = temperatuur
td = dauwpunt
ff = windsnelheid
fx = windstoten
dd = windrichting
ppp = luchtdruk
vv = zicht
rr = neerslag

Weerstations in de omgeving